Weather History for Wooster, OH

Change the Weather History Date:

Wednesday, March 5, 2014

  Actual Average Record
Temperature  
Mean Temperature 18 °F -  
Max Temperature 24 °F 38 °F 72 °F (2004)
Min Temperature 12 °F 22 °F 8 °F (2012)
Degree Days  
Heating Degree Days 47    
Moisture  
Dew Point 11 °F    
Average Humidity 69    
Maximum Humidity 80    
Minimum Humidity 57    
Precipitation  
Precipitation 0.00 in - - ()
Sea Level Pressure  
Sea Level Pressure 30.37 in    
Wind  
Wind Speed 8 mph (NNE)    
Max Wind Speed 14 mph    
Max Gust Speed -    
Visibility 8 miles    
Events Snow    
Averages and records for this station are not official NWS values.
T = Trace of Precipitation, MM = Missing Value Source: NWS Daily Summary

Daily Weather History Graph

Daily Weather History Graph

Search for Another Location

Airport:

Trip Planner

Search our weather history database for the weather conditions in past years. The results will help you decide how hot, cold, wet, or windy it might be!

Date:

Astronomy

Mar. 05, 2014 Rise Set
Actual Time 6:55 AM EST 6:23 PM EST
Civil Twilight 6:27 AM EST 6:50 PM EST
Nautical Twilight 5:56 AM EST 7:22 PM EST
Astronomical Twilight 5:24 AM EST 7:54 PM EST
Moon 9:18 AM EST (3/5) 11:32 PM EST (3/5)
Length of Visible Light 12h 22m
Length of Day
11h 27m
Waxing Crescent, 23% of the Moon is Illuminated
Mar 5
Waxing Crescent
Mar 8
First Quarter
Mar 16
Full
Mar 23
Last Quarter
Mar 30
New

Hourly Weather History & Observations

Time (EST) Temp. Windchill Dew Point Humidity Pressure Visibility Wind Dir Wind Speed Gust Speed Precip Events Conditions
12:56 AM 12.9 °F 6.9 °F 6.1 °F 74% 30.25 in 10.0 mi NNW 3.5 mph - N/A   Partly Cloudy
1:56 AM 14.0 °F 5.1 °F 8.1 °F 77% 30.25 in 10.0 mi North 5.8 mph - N/A   Partly Cloudy
2:56 AM 12.0 °F 4.1 °F 7.0 °F 80% 30.25 in 9.0 mi NNW 4.6 mph - N/A   Partly Cloudy
4:56 AM 18.0 °F 11.1 °F 10.9 °F 74% 30.25 in 10.0 mi North 4.6 mph - N/A   Overcast
5:56 AM 18.0 °F 7.7 °F 10.9 °F 74% 30.28 in 10.0 mi North 8.1 mph - N/A   Overcast
6:56 AM 18.0 °F 7.7 °F 10.9 °F 74% 30.30 in 10.0 mi North 8.1 mph - N/A   Overcast
7:56 AM 18.0 °F 8.7 °F 10.0 °F 71% 30.33 in 10.0 mi NNE 6.9 mph - N/A   Overcast
8:56 AM 19.9 °F 9.3 °F 10.9 °F 68% 30.35 in 10.0 mi North 9.2 mph - N/A   Overcast
9:56 AM 21.0 °F 10.6 °F 10.0 °F 63% 30.36 in 10.0 mi North 9.2 mph - N/A   Overcast
10:56 AM 21.9 °F 12.5 °F 9.0 °F 58% 30.37 in 10.0 mi NNE 8.1 mph - N/A   Mostly Cloudy
11:56 AM 23.0 °F 11.7 °F 10.0 °F 58% 30.40 in 10.0 mi NNE 11.5 mph - N/A   Mostly Cloudy
12:56 PM 23.0 °F 13.1 °F 12.0 °F 63% 30.40 in 8.0 mi North 9.2 mph - 0.00 in   Overcast
1:38 PM 23.0 °F 13.9 °F 14.0 °F 68% 30.33 in 1.8 mi NE 8.1 mph - 0.00 in Snow Light Snow
1:45 PM 23.0 °F 11.7 °F 14.0 °F 68% 30.32 in 1.2 mi North 11.5 mph - 0.00 in Snow Light Snow
1:56 PM 21.9 °F 11.0 °F 15.1 °F 75% 30.39 in 1.5 mi North 10.4 mph - 0.00 in Snow Light Snow
2:07 PM 21.9 °F 11.0 °F 16.0 °F 78% 30.33 in 2.5 mi North 10.4 mph - 0.00 in Snow Light Snow
2:14 PM 21.9 °F 11.0 °F 15.1 °F 75% 30.32 in 5.0 mi North 10.4 mph - 0.00 in Snow Light Snow
2:22 PM 23.0 °F 11.7 °F 16.0 °F 74% 30.33 in 7.0 mi North 11.5 mph - 0.00 in Snow Light Snow
2:56 PM 21.9 °F 11.0 °F 15.1 °F 75% 30.39 in 8.0 mi North 10.4 mph - 0.00 in Snow Light Snow
3:56 PM 24.1 °F 13.1 °F 12.9 °F 62% 30.39 in 10.0 mi North 11.5 mph - 0.00 in   Overcast
4:56 PM 24.1 °F 12.0 °F 10.9 °F 57% 30.40 in 10.0 mi NNE 13.8 mph - N/A   Mostly Cloudy
5:56 PM 21.9 °F 10.4 °F 9.0 °F 58% 30.43 in 10.0 mi NE 11.5 mph - N/A   Clear
6:56 PM 19.0 °F 9.0 °F 8.1 °F 62% 30.45 in 10.0 mi NNE 8.1 mph - N/A   Clear
7:56 PM 18.0 °F 6.9 °F 8.1 °F 65% 30.47 in 10.0 mi NE 9.2 mph - N/A   Clear
8:56 PM 17.1 °F 5.0 °F 7.0 °F 65% 30.47 in 10.0 mi ENE 10.4 mph - N/A   Clear
9:56 PM 16.0 °F 2.9 °F 6.1 °F 65% 30.48 in 10.0 mi NE 11.5 mph - N/A   Clear
10:56 PM 15.1 °F 3.3 °F 6.1 °F 68% 30.48 in 10.0 mi ENE 9.2 mph - N/A   Clear
11:56 PM 14.0 °F 2.9 °F 6.1 °F 71% 30.47 in 10.0 mi ENE 8.1 mph - N/A   Clear